Sable: Past 24 Hour Conditions

 

Cartwright Airport

03:00 PM ADT 31 October 2014
This table is a summary of hourly weather conditions for the past 24 hours.
Date / Time
(ADT)
Wind(knots) Conditions Visibility(km) Pressure(kPa) Air tempC) Relative humidity(%) Dew pointC)
31 October 2014
15:00 W 12 gust 24 Mainly Sunny 24 100.8 4 54 -4
14:00 W 10 gust 20 Partly Cloudy 24 100.7 5 55 -4
13:00 W 10 gust 18 Mostly Cloudy 24 100.7 4 61 -3
12:00 W 11 gust 20 Mainly Sunny 24 100.6 4 56 -4
11:00 W 14 gust 22 Mostly Cloudy 24 100.6 4 62 -3
10:00 W 13 gust 24 Mainly Sunny 24 100.5 3 67 -3
9:00 W 12 gust 19 Cloudy 24 100.5 2 73 -2
8:00 W 12 gust 21 Cloudy 24 100.4 2 67 -3
7:00 WSW 7 Clear 24 100.3 2 75 -2
6:00 WSW 8 Clear 24 100.3 2 78 -2
5:00 W 9 Clear 24 100.2 3 72 -2
4:00 WSW 5 Clear 24 100.2 3 77 -1
3:00 W 13 gust 18 Clear 24 100.1 3 77 -1
2:00 WSW 10 Clear 24 100.1 3 76 -1
1:00 W 9 Clear 24 100.0 3 80 0
0:00 W 8 Cloudy 24 99.9 5 80 2
30 October 2014
23:00 W 13 gust 18 Cloudy 24 99.9 5 83 2
22:00 WNW 4 Cloudy 24 99.8 4 90 3
21:00 SW 3 Cloudy 24 99.8 4 91 3
20:00 calm Cloudy 24 99.7 4 94 3
19:00 WSW 5 Light Rain 24 99.6 3 95 3
18:00 W 7 Cloudy 24 99.6 3 97 3
17:00 SW 8 Light Rain 16 99.5 3 99 3
16:00 SSW 8 Light Rain 15 99.4 3 99 3
15:00 SW 5 Light Rain 15 99.4 3 97 2
 
Map of Atlantic - Newfoundland marine weather areas Southwestern Grand Banks - 44138 Banquereau - 44139 Tail of the Bank - 44140 Nickerson Bank - 44251 Northeast Burgeo Bank - 44255 Blanc-Sablon Airport Cap Whittle Chevery Natashquan Airport Heath Point Miscou Island Grand Étang Ingonish Beach North Mountain St.Paul Island J.A. Douglas McCurdy Sydney Airport Charlottetown Airport East Point North Cape Argentia Bonavista Burgeo Cape Race Corner Brook Daniel's Harbour Englee Ferolle Point La Scie Port aux Basques Rocky Harbour Sagona Island St. Anthony Airport St. John's Int'l Airport St. Lawrence Stephenville Airport Twillingate Winterland Wreckhouse Cartwright Airport Mary's Harbour Grates Cove Pool's Island Marticot Island Long Pond Îles de la Madeleine Airport
Legend: buoyBuoy land stationLand Station